Location: Petrozavodsk
(61.7955°N, 34.3748°E)
Time: 02:43:54
(UTC+03:00)

Envisat - Pass Details

Date: 02 April 2023
Orbit: 763 x 765 km, 98.2° (Epoch: 28 May)

Event Time Altitude Azimuth Distance (km) Brightness Sun altitude
Rises 04:07:25 0° 19° (NNE) 3,249 7.3 -13.2°
Reaches altitude 10° 04:09:56 10° 28° (NNE) 2,319 6.6 -12.9°
Maximum altitude 04:14:36 35° 94° (E) 1,238 4.6 -12.5°
Drops below altitude 10° 04:19:13 10° 159° (SSE) 2,303 5.3 -12.0°
Sets 04:21:43 0° 169° (S) 3,225 6.0 -11.8°
